Flag Weather past 2 weeks in Mississauga, Ontario, Canada

Now
23 °F

Scattered clouds.


Feels Like: 11 °F
Forecast: 21 / 26 °F
Wind: 13 mph from Northwest

Location: Toronto Pearson International Airport

Current Time: Nov 28, 2014 at 9:46:12 AM

Latest Report: Nov 28, 2014 at 9:00 AM


Visibility: 15 mi

Pressure: 30.28 "Hg

Humidity: 63%

Dew point: 12 °F

Location of MississaugaLocation

Historic Weather in Mississauga — Graph

°F

Mississauga temperature yesterday

Maximum temperature yesterday: 36 °F (at 12:00 PM)
Minimum temperature yesterday: 27 °F (at 11:00 PM)
Average temperature yesterday: 31 °F

Past Weeks' High & Low Weather Summary

 TemperatureHumidityPressure
High64 °F (Nov 24, 12:00 PM)100% (Nov 17, 3:00 AM)30.46 "Hg (Nov 17, 3:00 AM)
Low14 °F (Nov 19, 6:00 AM)44% (Nov 15, 1:00 PM)29.13 "Hg (Nov 24, 12:53 PM)
Average31 °F75%29.97 "Hg
* Reported Nov 13 8:00 AM — Nov 28 8:00 AM, Mississauga, Weather by CustomWeather, © 2014

Note: Actual official high and low records may vary slightly from our data, if they occured in-between our weather recording intervals... More about our weather records

Advertising

Mississauga weather history for previous 24 hours

 ConditionsComfort  
Time TempWeatherWind HumidityBarometerVisibility
8:00 AM
Nov 28
21 °FPassing clouds.8 mph74%30.27 "Hg15 mi
7:00 AM19 °FPassing clouds.8 mph73%30.27 "Hg15 mi
6:00 AM21 °FPassing clouds.10 mph68%30.25 "Hg15 mi
5:00 AM19 °FPassing clouds.8 mph79%30.24 "Hg15 mi
4:00 AM19 °FPassing clouds.10 mph79%30.22 "Hg15 mi
3:00 AM21 °FPassing clouds.10 mph74%30.21 "Hg15 mi
2:00 AM23 °FClear.15 mph63%30.20 "Hg15 mi
1:00 AM23 °FClear.14 mph63%30.18 "Hg15 mi
12:00 AM25 °FPassing clouds.17 mph69%30.18 "Hg15 mi
11:00 PM
Nov 27
27 °FPassing clouds.15 mph74%30.17 "Hg15 mi
10:00 PM28 °FPassing clouds.17 mph74%30.15 "Hg15 mi
9:46 PM28 °FPassing clouds.12 mph80%30.15 "Hg15 mi
9:00 PM30 °FSnow flurries. Overcast.18 mph80%30.13 "Hg4 mi
8:00 PM30 °FMostly cloudy.9 mph80%30.12 "Hg15 mi
7:52 PM30 °FPassing clouds.12 mph80%30.12 "Hg12 mi
7:00 PM30 °FSnow flurries. Overcast.13 mph75%30.11 "Hg10 mi
6:00 PM30 °FSnow flurries. Overcast.13 mph69%30.10 "Hg12 mi
5:00 PM32 °FPassing clouds.12 mph69%30.09 "Hg15 mi
4:00 PM36 °FPartly sunny.9 mph56%30.07 "Hg15 mi
3:00 PM36 °FPartly sunny.10 mph56%30.06 "Hg15 mi
2:00 PM36 °FBroken clouds.12 mph56%30.06 "Hg15 mi
1:00 PM36 °FPartly sunny.9 mph60%30.06 "Hg15 mi
12:00 PM36 °FPartly sunny.6 mph60%30.07 "Hg15 mi
11:00 AM34 °FPartly sunny.6 mph65%30.09 "Hg15 mi
10:00 AM32 °FPartly sunny.8 mph80%30.09 "Hg15 mi
9:00 AM30 °FScattered showers. Broken clouds.6 mph86%30.08 "Hg15 mi
Weather by CustomWeather, © 2014

See weather overviewHow to use our weather pages